sat.trackr.live / text

‹ back to catalog

STARLINK-6114

NORAD 56116 · 2023-046Z

PAYLOAD ACTIVE UNKNOWN

§ Identity

Operator
Country
US
Launch date
2023-03-29
Launch site
AFETR
Launch vehicle
Mass (kg)
RCS (m²)

Purposes: comms

External: N2YO · Heavens-Above · Gunter

§ Orbital elements

Epoch: 2026-09-20T09:23:11.079744Z

Period
94.27 min
Inclination
43.0027°
Eccentricity
0.0001836
Mean motion
15.27573517 rev/d
Perigee alt
481.8 km
Apogee alt
484.3 km
Semi-major
6,861.2 km
B*
-4.2510e-6
RAAN
142.4024°
Arg perigee
264.8156°
Mean anomaly
95.2486°
Rev number
19,180

§ Raw data

STARLINK-61141 56116U 23046Z   26263.39110046 -.00000379  00000+0 -42510-5 0  99942 56116  43.0027 142.4024 0001836 264.8156  95.2486 15.27573517191800

JSON: /api/v1/satellites/56116 · /tle

For live sub-satellite position, see the globe view (requires WebGL).

§ Visibility from observer

Set your observer location to see the next 7 days of passes ≥ 10°. The values pass through the URL so the page stays shareable.

No JS? Fill the form by hand. The geolocation button needs JavaScript.